M I D A S
Marine Information and Data Acquisition System
Tripno 1438 of the Zeeleeuw from 2008-03-14 05:09:52 to 2008-03-14 16:23:57
Back to CruiseResearch ActivitiesStationsMapUnderway DataData graphs

EquipmentUnitsComments
TimeDGPSUTC
LatitudeDGPSDM.mWGS84
LongitudeDGPSDM.mWGS84
SpeedMeteo Stationm/sRelative wind speed
DirectionMeteo StationdegRelative wind direction
TemperatureMeteo Stationdeg CelciusAir temperature
PressureMeteo StationPaAtmospheric pressure
HumidityMeteo Station%Relative humidity
Missing or incorrect values are displayed as -999
Metereological data collected by the RV Zeeleeuw from 2008-03-14 05:09:35 to 2008-03-14 16:34:50
                                                                                    Next 1000 lines
Time Latitude Longitude Speed Direction Temperature Pressure Humidity
2008-03-14 05:09:44 51°13.662 2°55.955 -999 -999 -999 -999 -999
2008-03-14 05:09:50 51°13.662 2°55.955 -999 -999 -999 -999 -999
2008-03-14 05:09:54 51°13.662 2°55.955 -999 -999 -999 -999 -999
2008-03-14 05:09:58 51°13.662 2°55.954 -999 -999 -999 -999 -999
2008-03-14 05:10:04 51°13.663 2°55.952 -999 -999 -999 -999 -999
2008-03-14 05:10:10 51°13.663 2°55.95 -999 -999 -999 -999 -999
2008-03-14 05:10:13 51°13.664 2°55.949 -999 -999 -999 -999 -999
2008-03-14 05:10:18 51°13.665 2°55.946 -999 -999 -999 -999 -999
2008-03-14 05:10:24 51°13.666 2°55.941 -999 -999 -999 -999 -999
2008-03-14 05:10:29 51°13.667 2°55.938 -999 -999 -999 -999 -999
2008-03-14 05:10:34 51°13.668 2°55.933 -999 -999 -999 -999 -999
2008-03-14 05:10:39 51°13.669 2°55.929 -999 -999 -999 -999 -999
2008-03-14 05:10:45 51°13.671 2°55.923 -999 -999 -999 -999 -999
2008-03-14 05:10:49 51°13.672 2°55.918 -999 -999 -999 -999 -999
2008-03-14 05:10:54 51°13.674 2°55.913 -999 -999 -999 -999 -999
2008-03-14 05:10:59 51°13.675 2°55.907 -999 -999 -999 -999 -999
2008-03-14 05:11:05 51°13.677 2°55.899 -999 -999 -999 -999 -999
2008-03-14 05:11:09 51°13.678 2°55.894 -999 -999 -999 -999 -999
2008-03-14 05:11:14 51°13.679 2°55.888 -999 -999 -999 -999 -999
2008-03-14 05:11:19 51°13.68 2°55.881 -999 -999 -999 -999 -999
2008-03-14 05:11:24 51°13.682 2°55.874 -999 -999 -999 -999 -999
2008-03-14 05:11:29 51°13.683 2°55.867 -999 -999 -999 -999 -999
2008-03-14 05:11:34 51°13.683 2°55.861 -999 -999 -999 -999 -999
2008-03-14 05:11:39 51°13.684 2°55.854 -999 -999 -999 -999 -999
2008-03-14 05:11:44 51°13.685 2°55.847 -999 -999 -999 -999 -999
2008-03-14 05:11:50 51°13.687 2°55.839 -999 -999 -999 -999 -999
2008-03-14 05:11:54 51°13.688 2°55.833 -999 -999 -999 -999 -999
2008-03-14 05:11:59 51°13.689 2°55.827 -999 -999 -999 -999 -999
2008-03-14 05:12:04 51°13.691 2°55.82 -999 -999 -999 -999 -999
2008-03-14 05:12:09 51°13.693 2°55.813 -999 -999 -999 -999 -999
2008-03-14 05:12:14 51°13.695 2°55.806 -999 -999 -999 -999 -999
2008-03-14 05:12:19 51°13.697 2°55.799 -999 -999 -999 -999 -999
2008-03-14 05:12:24 51°13.699 2°55.791 -999 -999 -999 -999 -999
2008-03-14 05:12:29 51°13.701 2°55.784 -999 -999 -999 -999 -999
2008-03-14 05:12:34 51°13.703 2°55.777 -999 -999 -999 -999 -999
2008-03-14 05:12:40 51°13.706 2°55.768 -999 -999 -999 -999 -999
2008-03-14 05:12:44 51°13.708 2°55.762 -999 -999 -999 -999 -999
2008-03-14 05:12:49 51°13.711 2°55.755 -999 -999 -999 -999 -999
2008-03-14 05:12:54 51°13.713 2°55.749 -999 -999 -999 -999 -999
2008-03-14 05:12:59 51°13.715 2°55.743 -999 -999 -999 -999 -999
2008-03-14 05:13:05 51°13.717 2°55.738 -999 -999 -999 -999 -999
2008-03-14 05:13:09 51°13.718 2°55.735 -999 -999 -999 -999 -999
2008-03-14 05:13:14 51°13.72 2°55.731 -999 -999 -999 -999 -999
2008-03-14 05:13:19 51°13.721 2°55.729 -999 -999 -999 -999 -999
2008-03-14 05:13:24 51°13.721 2°55.726 -999 -999 -999 -999 -999
2008-03-14 05:13:29 51°13.722 2°55.725 -999 -999 -999 -999 -999
2008-03-14 05:13:34 51°13.722 2°55.724 -999 -999 -999 -999 -999
2008-03-14 05:13:39 51°13.722 2°55.724 -999 -999 -999 -999 -999
2008-03-14 05:13:44 51°13.722 2°55.725 -999 -999 -999 -999 -999
2008-03-14 05:13:49 51°13.722 2°55.726 -999 -999 -999 -999 -999
2008-03-14 05:13:54 51°13.722 2°55.728 -999 -999 -999 -999 -999
2008-03-14 05:13:59 51°13.722 2°55.73 -999 -999 -999 -999 -999
2008-03-14 05:14:04 51°13.722 2°55.733 -999 -999 -999 -999 -999
2008-03-14 05:14:09 51°13.722 2°55.737 -999 -999 -999 -999 -999
2008-03-14 05:14:14 51°13.722 2°55.74 -999 -999 -999 -999 -999
2008-03-14 05:14:19 51°13.722 2°55.743 -999 -999 -999 -999 -999
2008-03-14 05:14:24 51°13.722 2°55.746 -999 -999 -999 -999 -999
2008-03-14 05:14:29 51°13.722 2°55.747 -999 -999 -999 -999 -999
2008-03-14 05:14:34 51°13.722 2°55.747 -999 -999 -999 -999 -999
2008-03-14 05:14:39 51°13.721 2°55.747 -999 -999 -999 -999 -999
2008-03-14 05:14:44 51°13.721 2°55.746 -999 -999 -999 -999 -999
2008-03-14 05:14:49 51°13.72 2°55.744 -999 -999 -999 -999 -999
2008-03-14 05:14:54 51°13.719 2°55.741 -999 -999 -999 -999 -999
2008-03-14 05:14:59 51°13.718 2°55.738 -999 -999 -999 -999 -999
2008-03-14 05:15:04 51°13.718 2°55.735 -999 -999 -999 -999 -999
2008-03-14 05:15:09 51°13.716 2°55.731 -999 -999 -999 -999 -999
2008-03-14 05:15:14 51°13.716 2°55.727 -999 -999 -999 -999 -999
2008-03-14 05:15:19 51°13.715 2°55.723 -999 -999 -999 -999 -999
2008-03-14 05:15:24 51°13.714 2°55.721 -999 -999 -999 -999 -999
2008-03-14 05:15:29 51°13.714 2°55.72 -999 -999 -999 -999 -999
2008-03-14 05:15:34 51°13.714 2°55.72 -999 -999 -999 -999 -999
2008-03-14 05:15:39 51°13.715 2°55.722 -999 -999 -999 -999 -999
2008-03-14 05:15:45 51°13.717 2°55.725 -999 -999 -999 -999 -999
2008-03-14 05:15:49 51°13.719 2°55.727 -999 -999 -999 -999 -999
2008-03-14 05:15:54 51°13.721 2°55.73 -999 -999 -999 -999 -999
2008-03-14 05:15:59 51°13.723 2°55.733 -999 -999 -999 -999 -999
2008-03-14 05:16:04 51°13.726 2°55.735 -999 -999 -999 -999 -999
2008-03-14 05:16:09 51°13.728 2°55.737 -999 -999 -999 -999 -999
2008-03-14 05:16:14 51°13.728 2°55.739 -999 -999 -999 -999 -999
2008-03-14 05:16:19 51°13.729 2°55.739 -999 -999 -999 -999 -999
2008-03-14 05:16:24 51°13.728 2°55.74 -999 -999 -999 -999 -999
2008-03-14 05:16:29 51°13.728 2°55.739 -999 -999 -999 -999 -999
2008-03-14 05:16:34 51°13.726 2°55.739 -999 -999 -999 -999 -999
2008-03-14 05:16:39 51°13.724 2°55.739 -999 -999 -999 -999 -999
2008-03-14 05:16:44 51°13.721 2°55.738 -999 -999 -999 -999 -999
2008-03-14 05:16:49 51°13.719 2°55.737 -999 -999 -999 -999 -999
2008-03-14 05:16:54 51°13.716 2°55.736 -999 -999 -999 -999 -999
2008-03-14 05:16:59 51°13.714 2°55.735 -999 -999 -999 -999 -999
2008-03-14 05:17:04 51°13.712 2°55.734 -999 -999 -999 -999 -999
2008-03-14 05:17:09 51°13.712 2°55.734 -999 -999 -999 -999 -999
2008-03-14 05:17:14 51°13.712 2°55.734 -999 -999 -999 -999 -999
2008-03-14 05:17:19 51°13.713 2°55.734 -999 -999 -999 -999 -999
2008-03-14 05:17:24 51°13.715 2°55.734 -999 -999 -999 -999 -999
2008-03-14 05:17:29 51°13.718 2°55.734 -999 -999 -999 -999 -999
2008-03-14 05:17:34 51°13.721 2°55.733 -999 -999 -999 -999 -999
2008-03-14 05:17:39 51°13.725 2°55.731 -999 -999 -999 -999 -999
2008-03-14 05:17:44 51°13.73 2°55.728 -999 -999 -999 -999 -999
2008-03-14 05:17:49 51°13.735 2°55.724 -999 -999 -999 -999 -999
2008-03-14 05:17:54 51°13.741 2°55.719 -999 -999 -999 -999 -999
2008-03-14 05:17:59 51°13.748 2°55.713 -999 -999 -999 -999 -999
2008-03-14 05:18:04 51°13.755 2°55.707 -999 -999 -999 -999 -999
2008-03-14 05:18:09 51°13.763 2°55.7 -999 -999 -999 -999 -999
2008-03-14 05:18:14 51°13.771 2°55.693 -999 -999 -999 -999 -999
2008-03-14 05:18:19 51°13.78 2°55.686 -999 -999 -999 -999 -999
2008-03-14 05:18:24 51°13.79 2°55.678 -999 -999 -999 -999 -999
2008-03-14 05:18:29 51°13.799 2°55.67 -999 -999 -999 -999 -999
2008-03-14 05:18:34 51°13.809 2°55.662 -999 -999 -999 -999 -999
2008-03-14 05:18:39 51°13.819 2°55.653 -999 -999 -999 -999 -999
2008-03-14 05:18:44 51°13.829 2°55.644 -999 -999 -999 -999 -999
2008-03-14 05:18:49 51°13.84 2°55.636 -999 -999 -999 -999 -999
2008-03-14 05:18:54 51°13.85 2°55.627 -999 -999 -999 -999 -999
2008-03-14 05:18:59 51°13.86 2°55.616 -999 -999 -999 -999 -999
2008-03-14 05:19:04 51°13.871 2°55.608 -999 -999 -999 -999 -999
2008-03-14 05:19:09 51°13.883 2°55.6 -999 -999 -999 -999 -999
2008-03-14 05:19:14 51°13.894 2°55.591 -999 -999 -999 -999 -999
2008-03-14 05:19:19 51°13.905 2°55.583 -999 -999 -999 -999 -999
2008-03-14 05:19:24 51°13.916 2°55.574 -999 -999 -999 -999 -999
2008-03-14 05:19:29 51°13.927 2°55.565 -999 -999 -999 -999 -999
2008-03-14 05:19:34 51°13.938 2°55.556 -999 -999 -999 -999 -999
2008-03-14 05:19:39 51°13.949 2°55.546 -999 -999 -999 -999 -999
2008-03-14 05:19:44 51°13.96 2°55.537 -999 -999 -999 -999 -999
2008-03-14 05:19:49 51°13.971 2°55.527 -999 -999 -999 -999 -999
2008-03-14 05:19:54 51°13.982 2°55.518 -999 -999 -999 -999 -999
2008-03-14 05:19:59 51°13.993 2°55.509 -999 -999 -999 -999 -999
2008-03-14 05:20:04 51°14.004 2°55.5 -999 -999 -999 -999 -999
2008-03-14 05:20:09 51°14.015 2°55.491 -999 -999 -999 -999 -999
2008-03-14 05:20:14 51°14.026 2°55.482 -999 -999 -999 -999 -999
2008-03-14 05:20:19 51°14.037 2°55.473 -999 -999 -999 -999 -999
2008-03-14 05:20:24 51°14.048 2°55.464 -999 -999 -999 -999 -999
2008-03-14 05:20:29 51°14.06 2°55.456 -999 -999 -999 -999 -999
2008-03-14 05:20:34 51°14.071 2°55.447 -999 -999 -999 -999 -999
2008-03-14 05:20:39 51°14.082 2°55.438 -999 -999 -999 -999 -999
2008-03-14 05:20:44 51°14.094 2°55.429 -999 -999 -999 -999 -999
2008-03-14 05:20:49 51°14.105 2°55.421 -999 -999 -999 -999 -999
2008-03-14 05:20:54 51°14.116 2°55.412 -999 -999 -999 -999 -999
2008-03-14 05:20:59 51°14.128 2°55.403 -999 -999 -999 -999 -999
2008-03-14 05:21:04 51°14.139 2°55.393 -999 -999 -999 -999 -999
2008-03-14 05:21:09 51°14.15 2°55.383 -999 -999 -999 -999 -999
2008-03-14 05:21:14 51°14.16 2°55.373 -999 -999 -999 -999 -999
2008-03-14 05:21:19 51°14.171 2°55.362 -999 -999 -999 -999 -999
2008-03-14 05:21:24 51°14.182 2°55.351 -999 -999 -999 -999 -999
2008-03-14 05:21:29 51°14.193 2°55.339 -999 -999 -999 -999 -999
2008-03-14 05:21:34 51°14.203 2°55.326 -999 -999 -999 -999 -999
2008-03-14 05:21:39 51°14.213 2°55.313 -999 -999 -999 -999 -999
2008-03-14 05:21:44 51°14.223 2°55.299 -999 -999 -999 -999 -999
2008-03-14 05:21:49 51°14.232 2°55.285 -999 -999 -999 -999 -999
2008-03-14 05:21:54 51°14.241 2°55.27 -999 -999 -999 -999 -999
2008-03-14 05:21:59 51°14.251 2°55.256 -999 -999 -999 -999 -999
2008-03-14 05:22:04 51°14.26 2°55.241 -999 -999 -999 -999 -999
2008-03-14 05:22:09 51°14.269 2°55.225 -999 -999 -999 -999 -999
2008-03-14 05:22:14 51°14.278 2°55.21 -999 -999 -999 -999 -999
2008-03-14 05:22:19 51°14.286 2°55.194 -999 -999 -999 -999 -999
2008-03-14 05:22:24 51°14.295 2°55.178 -999 -999 -999 -999 -999
2008-03-14 05:22:29 51°14.303 2°55.161 -999 -999 -999 -999 -999
2008-03-14 05:22:34 51°14.311 2°55.144 -999 -999 -999 -999 -999
2008-03-14 05:22:39 51°14.319 2°55.127 -999 -999 -999 -999 -999
2008-03-14 05:22:44 51°14.328 2°55.11 -999 -999 -999 -999 -999
2008-03-14 05:22:49 51°14.337 2°55.093 -999 -999 -999 -999 -999
2008-03-14 05:22:54 51°14.346 2°55.076 -999 -999 -999 -999 -999
2008-03-14 05:22:59 51°14.355 2°55.059 -999 -999 -999 -999 -999
2008-03-14 05:23:04 51°14.364 2°55.042 -999 -999 -999 -999 -999
2008-03-14 05:23:09 51°14.373 2°55.026 -999 -999 -999 -999 -999
2008-03-14 05:23:14 51°14.384 2°55.011 -999 -999 -999 -999 -999
2008-03-14 05:23:19 51°14.394 2°54.996 -999 -999 -999 -999 -999
2008-03-14 05:23:24 51°14.406 2°54.983 -999 -999 -999 -999 -999
2008-03-14 05:23:29 51°14.417 2°54.97 -999 -999 -999 -999 -999
2008-03-14 05:23:34 51°14.429 2°54.957 -999 -999 -999 -999 -999
2008-03-14 05:23:39 51°14.44 2°54.945 -999 -999 -999 -999 -999
2008-03-14 05:23:44 51°14.452 2°54.933 -999 -999 -999 -999 -999
2008-03-14 05:23:49 51°14.463 2°54.92 -999 -999 -999 -999 -999
2008-03-14 05:23:54 51°14.474 2°54.908 -999 -999 -999 -999 -999
2008-03-14 05:23:59 51°14.486 2°54.895 -999 -999 -999 -999 -999
2008-03-14 05:24:04 51°14.497 2°54.882 -999 -999 -999 -999 -999
2008-03-14 05:24:09 51°14.508 2°54.868 -999 -999 -999 -999 -999
2008-03-14 05:24:14 51°14.519 2°54.855 -999 -999 -999 -999 -999
2008-03-14 05:24:19 51°14.53 2°54.841 -999 -999 -999 -999 -999
2008-03-14 05:24:24 51°14.541 2°54.827 -999 -999 -999 -999 -999
2008-03-14 05:24:29 51°14.552 2°54.813 -999 -999 -999 -999 -999
2008-03-14 05:24:34 51°14.562 2°54.798 -999 -999 -999 -999 -999
2008-03-14 05:24:39 51°14.572 2°54.783 -999 -999 -999 -999 -999
2008-03-14 05:24:44 51°14.582 2°54.767 -999 -999 -999 -999 -999
2008-03-14 05:24:49 51°14.592 2°54.752 -999 -999 -999 -999 -999
2008-03-14 05:24:54 51°14.602 2°54.735 -999 -999 -999 -999 -999
2008-03-14 05:24:59 51°14.612 2°54.72 -999 -999 -999 -999 -999
2008-03-14 05:25:04 51°14.622 2°54.704 -999 -999 -999 -999 -999
2008-03-14 05:25:09 51°14.632 2°54.688 -999 -999 -999 -999 -999
2008-03-14 05:25:14 51°14.642 2°54.672 -999 -999 -999 -999 -999
2008-03-14 05:25:19 51°14.653 2°54.656 -999 -999 -999 -999 -999
2008-03-14 05:25:24 51°14.663 2°54.64 -999 -999 -999 -999 -999
2008-03-14 05:25:29 51°14.673 2°54.623 -999 -999 -999 -999 -999
2008-03-14 05:25:34 51°14.683 2°54.606 -999 -999 -999 -999 -999
2008-03-14 05:25:39 51°14.693 2°54.588 -999 -999 -999 -999 -999
2008-03-14 05:25:44 51°14.703 2°54.57 -999 -999 -999 -999 -999
2008-03-14 05:25:49 51°14.713 2°54.551 -999 -999 -999 -999 -999
2008-03-14 05:25:54 51°14.723 2°54.533 -999 -999 -999 -999 -999
2008-03-14 05:25:59 51°14.734 2°54.514 -999 -999 -999 -999 -999
2008-03-14 05:26:04 51°14.743 2°54.494 -999 -999 -999 -999 -999
2008-03-14 05:26:09 51°14.754 2°54.474 -999 -999 -999 -999 -999
2008-03-14 05:26:14 51°14.764 2°54.454 -999 -999 -999 -999 -999
2008-03-14 05:26:19 51°14.773 2°54.434 -999 -999 -999 -999 -999
2008-03-14 05:26:24 51°14.783 2°54.413 -999 -999 -999 -999 -999
2008-03-14 05:26:29 51°14.793 2°54.393 -999 -999 -999 -999 -999
2008-03-14 05:26:34 51°14.803 2°54.373 -999 -999 -999 -999 -999
2008-03-14 05:26:39 51°14.813 2°54.353 -999 -999 -999 -999 -999
2008-03-14 05:26:44 51°14.823 2°54.332 -999 -999 -999 -999 -999
2008-03-14 05:26:49 51°14.834 2°54.312 -999 -999 -999 -999 -999
2008-03-14 05:26:54 51°14.844 2°54.291 -999 -999 -999 -999 -999
2008-03-14 05:26:59 51°14.853 2°54.27 -999 -999 -999 -999 -999
2008-03-14 05:27:04 51°14.863 2°54.249 -999 -999 -999 -999 -999
2008-03-14 05:27:09 51°14.873 2°54.229 -999 -999 -999 -999 -999
2008-03-14 05:27:14 51°14.883 2°54.208 -999 -999 -999 -999 -999
2008-03-14 05:27:19 51°14.893 2°54.187 -999 -999 -999 -999 -999
2008-03-14 05:27:24 51°14.903 2°54.166 -999 -999 -999 -999 -999
2008-03-14 05:27:29 51°14.913 2°54.146 -999 -999 -999 -999 -999
2008-03-14 05:27:34 51°14.922 2°54.125 -999 -999 -999 -999 -999
2008-03-14 05:27:39 51°14.932 2°54.104 -999 -999 -999 -999 -999
2008-03-14 05:27:44 51°14.942 2°54.084 -999 -999 -999 -999 -999
2008-03-14 05:27:49 51°14.952 2°54.063 -999 -999 -999 -999 -999
2008-03-14 05:27:54 51°14.962 2°54.042 -999 -999 -999 -999 -999
2008-03-14 05:27:59 51°14.972 2°54.021 -999 -999 -999 -999 -999
2008-03-14 05:28:04 51°14.982 2°54 -999 -999 -999 -999 -999
2008-03-14 05:28:09 51°14.991 2°53.979 -999 -999 -999 -999 -999
2008-03-14 05:28:14 51°15.001 2°53.958 -999 -999 -999 -999 -999
2008-03-14 05:28:19 51°15.011 2°53.937 -999 -999 -999 -999 -999
2008-03-14 05:28:24 51°15.021 2°53.916 -999 -999 -999 -999 -999
2008-03-14 05:28:29 51°15.031 2°53.895 -999 -999 -999 -999 -999
2008-03-14 05:28:34 51°15.041 2°53.874 -999 -999 -999 -999 -999
2008-03-14 05:28:39 51°15.051 2°53.853 -999 -999 -999 -999 -999
2008-03-14 05:28:44 51°15.06 2°53.832 -999 -999 -999 -999 -999
2008-03-14 05:28:49 51°15.07 2°53.811 -999 -999 -999 -999 -999
2008-03-14 05:28:54 51°15.08 2°53.79 -999 -999 -999 -999 -999
2008-03-14 05:28:59 51°15.09 2°53.769 -999 -999 -999 -999 -999
2008-03-14 05:29:04 51°15.1 2°53.748 -999 -999 -999 -999 -999
2008-03-14 05:29:09 51°15.11 2°53.727 -999 -999 -999 -999 -999
2008-03-14 05:29:14 51°15.12 2°53.706 -999 -999 -999 -999 -999
2008-03-14 05:29:19 51°15.129 2°53.685 -999 -999 -999 -999 -999
2008-03-14 05:29:24 51°15.139 2°53.665 -999 -999 -999 -999 -999
2008-03-14 05:29:29 51°15.148 2°53.643 -999 -999 -999 -999 -999
2008-03-14 05:29:34 51°15.156 2°53.62 -999 -999 -999 -999 -999
2008-03-14 05:29:39 51°15.164 2°53.598 -999 -999 -999 -999 -999
2008-03-14 05:29:44 51°15.172 2°53.575 -999 -999 -999 -999 -999
2008-03-14 05:29:50 51°15.182 2°53.548 -999 -999 -999 -999 -999
2008-03-14 05:29:54 51°15.188 2°53.53 -999 -999 -999 -999 -999
2008-03-14 05:29:59 51°15.196 2°53.507 -999 -999 -999 -999 -999
2008-03-14 05:30:04 51°15.204 2°53.484 -999 -999 -999 -999 -999
2008-03-14 05:30:09 51°15.211 2°53.462 -999 -999 -999 -999 -999
2008-03-14 05:30:14 51°15.217 2°53.438 -999 -999 -999 -999 -999
2008-03-14 05:30:19 51°15.222 2°53.414 -999 -999 -999 -999 -999
2008-03-14 05:30:24 51°15.228 2°53.39 -999 -999 -999 -999 -999
2008-03-14 05:30:29 51°15.234 2°53.366 -999 -999 -999 -999 -999
2008-03-14 05:30:34 51°15.238 2°53.342 -999 -999 -999 -999 -999
2008-03-14 05:30:39 51°15.244 2°53.318 -999 -999 -999 -999 -999
2008-03-14 05:30:44 51°15.249 2°53.294 -999 -999 -999 -999 -999
2008-03-14 05:30:49 51°15.253 2°53.269 -999 -999 -999 -999 -999
2008-03-14 05:30:54 51°15.257 2°53.244 -999 -999 -999 -999 -999
2008-03-14 05:30:59 51°15.262 2°53.22 -999 -999 -999 -999 -999
2008-03-14 05:31:04 51°15.265 2°53.195 -999 -999 -999 -999 -999
2008-03-14 05:31:09 51°15.27 2°53.17 -999 -999 -999 -999 -999
2008-03-14 05:31:14 51°15.273 2°53.146 -999 -999 -999 -999 -999
2008-03-14 05:31:19 51°15.277 2°53.121 -999 -999 -999 -999 -999
2008-03-14 05:31:24 51°15.281 2°53.096 -999 -999 -999 -999 -999
2008-03-14 05:31:29 51°15.285 2°53.071 -999 -999 -999 -999 -999
2008-03-14 05:31:34 51°15.289 2°53.046 -999 -999 -999 -999 -999
2008-03-14 05:31:39 51°15.293 2°53.021 -999 -999 -999 -999 -999
2008-03-14 05:31:44 51°15.297 2°52.997 -999 -999 -999 -999 -999
2008-03-14 05:31:49 51°15.301 2°52.972 -999 -999 -999 -999 -999
2008-03-14 05:31:54 51°15.305 2°52.947 -999 -999 -999 -999 -999
2008-03-14 05:31:59 51°15.309 2°52.922 -999 -999 -999 -999 -999
2008-03-14 05:32:04 51°15.313 2°52.898 -999 -999 -999 -999 -999
2008-03-14 05:32:09 51°15.317 2°52.873 -999 -999 -999 -999 -999
2008-03-14 05:32:14 51°15.321 2°52.848 -999 -999 -999 -999 -999
2008-03-14 05:32:19 51°15.324 2°52.823 -999 -999 -999 -999 -999
2008-03-14 05:32:24 51°15.328 2°52.799 -999 -999 -999 -999 -999
2008-03-14 05:32:29 51°15.333 2°52.774 -999 -999 -999 -999 -999
2008-03-14 05:32:34 51°15.337 2°52.75 -999 -999 -999 -999 -999
2008-03-14 05:32:39 51°15.341 2°52.725 -999 -999 -999 -999 -999
2008-03-14 05:32:44 51°15.345 2°52.701 -999 -999 -999 -999 -999
2008-03-14 05:32:49 51°15.349 2°52.676 -999 -999 -999 -999 -999
2008-03-14 05:32:54 51°15.353 2°52.652 -999 -999 -999 -999 -999
2008-03-14 05:32:59 51°15.356 2°52.627 -999 -999 -999 -999 -999
2008-03-14 05:33:04 51°15.36 2°52.602 -999 -999 -999 -999 -999
2008-03-14 05:33:09 51°15.363 2°52.578 -999 -999 -999 -999 -999
2008-03-14 05:33:14 51°15.367 2°52.553 -999 -999 -999 -999 -999
2008-03-14 05:33:19 51°15.369 2°52.528 -999 -999 -999 -999 -999
2008-03-14 05:33:24 51°15.372 2°52.503 -999 -999 -999 -999 -999
2008-03-14 05:33:29 51°15.375 2°52.478 -999 -999 -999 -999 -999
2008-03-14 05:33:34 51°15.377 2°52.453 -999 -999 -999 -999 -999
2008-03-14 05:33:39 51°15.38 2°52.428 -999 -999 -999 -999 -999
2008-03-14 05:33:44 51°15.384 2°52.403 -999 -999 -999 -999 -999
2008-03-14 05:33:49 51°15.386 2°52.378 -999 -999 -999 -999 -999
2008-03-14 05:33:54 51°15.389 2°52.353 -999 -999 -999 -999 -999
2008-03-14 05:33:59 51°15.392 2°52.328 -999 -999 -999 -999 -999
2008-03-14 05:34:04 51°15.394 2°52.303 -999 -999 -999 -999 -999
2008-03-14 05:34:09 51°15.397 2°52.278 -999 -999 -999 -999 -999
2008-03-14 05:34:14 51°15.399 2°52.253 -999 -999 -999 -999 -999
2008-03-14 05:34:19 51°15.402 2°52.228 -999 -999 -999 -999 -999
2008-03-14 05:34:24 51°15.404 2°52.203 -999 -999 -999 -999 -999
2008-03-14 05:34:29 51°15.407 2°52.178 -999 -999 -999 -999 -999
2008-03-14 05:34:34 51°15.409 2°52.153 -999 -999 -999 -999 -999
2008-03-14 05:34:39 51°15.412 2°52.128 -999 -999 -999 -999 -999
2008-03-14 05:34:44 51°15.414 2°52.103 -999 -999 -999 -999 -999
2008-03-14 05:34:49 51°15.417 2°52.079 -999 -999 -999 -999 -999
2008-03-14 05:34:54 51°15.419 2°52.054 -999 -999 -999 -999 -999
2008-03-14 05:34:59 51°15.421 2°52.029 -999 -999 -999 -999 -999
2008-03-14 05:35:04 51°15.424 2°52.004 -999 -999 -999 -999 -999
2008-03-14 05:35:09 51°15.426 2°51.98 -999 -999 -999 -999 -999
2008-03-14 05:35:14 51°15.429 2°51.955 -999 -999 -999 -999 -999
2008-03-14 05:35:19 51°15.432 2°51.93 -999 -999 -999 -999 -999
2008-03-14 05:35:24 51°15.434 2°51.905 -999 -999 -999 -999 -999
2008-03-14 05:35:29 51°15.437 2°51.88 -999 -999 -999 -999 -999
2008-03-14 05:35:34 51°15.439 2°51.855 -999 -999 -999 -999 -999
2008-03-14 05:35:39 51°15.441 2°51.83 -999 -999 -999 -999 -999
2008-03-14 05:35:44 51°15.444 2°51.805 -999 -999 -999 -999 -999
2008-03-14 05:35:49 51°15.446 2°51.781 -999 -999 -999 -999 -999
2008-03-14 05:35:54 51°15.446 2°51.756 -999 -999 -999 -999 -999
2008-03-14 05:35:59 51°15.446 2°51.731 -999 -999 -999 -999 -999
2008-03-14 05:36:04 51°15.446 2°51.707 -999 -999 -999 -999 -999
2008-03-14 05:36:09 51°15.445 2°51.682 -999 -999 -999 -999 -999
2008-03-14 05:36:14 51°15.445 2°51.657 -999 -999 -999 -999 -999
2008-03-14 05:36:19 51°15.443 2°51.633 -999 -999 -999 -999 -999
2008-03-14 05:36:24 51°15.443 2°51.608 -999 -999 -999 -999 -999
2008-03-14 05:36:29 51°15.442 2°51.583 -999 -999 -999 -999 -999
2008-03-14 05:36:34 51°15.441 2°51.558 -999 -999 -999 -999 -999
2008-03-14 05:36:39 51°15.441 2°51.534 -999 -999 -999 -999 -999
2008-03-14 05:36:44 51°15.44 2°51.509 -999 -999 -999 -999 -999
2008-03-14 05:36:49 51°15.44 2°51.484 -999 -999 -999 -999 -999
2008-03-14 05:36:54 51°15.439 2°51.459 -999 -999 -999 -999 -999
2008-03-14 05:36:59 51°15.438 2°51.435 -999 -999 -999 -999 -999
2008-03-14 05:37:04 51°15.438 2°51.41 -999 -999 -999 -999 -999
2008-03-14 05:37:09 51°15.437 2°51.385 -999 -999 -999 -999 -999
2008-03-14 05:37:14 51°15.437 2°51.36 -999 -999 -999 -999 -999
2008-03-14 05:37:19 51°15.436 2°51.336 -999 -999 -999 -999 -999
2008-03-14 05:37:24 51°15.435 2°51.311 -999 -999 -999 -999 -999
2008-03-14 05:37:29 51°15.434 2°51.286 -999 -999 -999 -999 -999
2008-03-14 05:37:34 51°15.432 2°51.262 -999 -999 -999 -999 -999
2008-03-14 05:37:39 51°15.431 2°51.237 -999 -999 -999 -999 -999
2008-03-14 05:37:44 51°15.429 2°51.213 -999 -999 -999 -999 -999
2008-03-14 05:37:49 51°15.428 2°51.188 -999 -999 -999 -999 -999
2008-03-14 05:37:54 51°15.426 2°51.164 -999 -999 -999 -999 -999
2008-03-14 05:37:59 51°15.425 2°51.14 -999 -999 -999 -999 -999
2008-03-14 05:38:04 51°15.423 2°51.115 -999 -999 -999 -999 -999
2008-03-14 05:38:09 51°15.421 2°51.091 -999 -999 -999 -999 -999
2008-03-14 05:38:14 51°15.42 2°51.066 -999 -999 -999 -999 -999
2008-03-14 05:38:19 51°15.419 2°51.042 -999 -999 -999 -999 -999
2008-03-14 05:38:24 51°15.417 2°51.017 -999 -999 -999 -999 -999
2008-03-14 05:38:29 51°15.416 2°50.993 -999 -999 -999 -999 -999
2008-03-14 05:38:34 51°15.414 2°50.968 -999 -999 -999 -999 -999
2008-03-14 05:38:39 51°15.413 2°50.944 -999 -999 -999 -999 -999
2008-03-14 05:38:44 51°15.411 2°50.92 -999 -999 -999 -999 -999
2008-03-14 05:38:49 51°15.41 2°50.895 -999 -999 -999 -999 -999
2008-03-14 05:38:54 51°15.409 2°50.871 -999 -999 -999 -999 -999
2008-03-14 05:38:59 51°15.407 2°50.846 -999 -999 -999 -999 -999
2008-03-14 05:39:04 51°15.406 2°50.822 -999 -999 -999 -999 -999
2008-03-14 05:39:10 51°15.404 2°50.793 -999 -999 -999 -999 -999
2008-03-14 05:39:14 51°15.403 2°50.773 -999 -999 -999 -999 -999
2008-03-14 05:39:19 51°15.401 2°50.748 -999 -999 -999 -999 -999
2008-03-14 05:39:24 51°15.4 2°50.724 -999 -999 -999 -999 -999
2008-03-14 05:39:29 51°15.398 2°50.699 -999 -999 -999 -999 -999
2008-03-14 05:39:34 51°15.396 2°50.675 -999 -999 -999 -999 -999
2008-03-14 05:39:39 51°15.395 2°50.65 -999 -999 -999 -999 -999
2008-03-14 05:39:44 51°15.394 2°50.626 -999 -999 -999 -999 -999
2008-03-14 05:39:49 51°15.392 2°50.602 -999 -999 -999 -999 -999
2008-03-14 05:39:54 51°15.391 2°50.577 -999 -999 -999 -999 -999
2008-03-14 05:39:59 51°15.389 2°50.553 -999 -999 -999 -999 -999
2008-03-14 05:40:04 51°15.388 2°50.529 -999 -999 -999 -999 -999
2008-03-14 05:40:09 51°15.387 2°50.504 -999 -999 -999 -999 -999
2008-03-14 05:40:14 51°15.385 2°50.48 -999 -999 -999 -999 -999
2008-03-14 05:40:19 51°15.384 2°50.455 -999 -999 -999 -999 -999
2008-03-14 05:40:24 51°15.382 2°50.431 -999 -999 -999 -999 -999
2008-03-14 05:40:29 51°15.381 2°50.406 -999 -999 -999 -999 -999
2008-03-14 05:40:34 51°15.378 2°50.382 -999 -999 -999 -999 -999
2008-03-14 05:40:39 51°15.376 2°50.357 -999 -999 -999 -999 -999
2008-03-14 05:40:44 51°15.374 2°50.332 -999 -999 -999 -999 -999
2008-03-14 05:40:49 51°15.372 2°50.308 -999 -999 -999 -999 -999
2008-03-14 05:40:54 51°15.37 2°50.283 -999 -999 -999 -999 -999
2008-03-14 05:40:59 51°15.368 2°50.259 -999 -999 -999 -999 -999
2008-03-14 05:41:04 51°15.365 2°50.234 -999 -999 -999 -999 -999
2008-03-14 05:41:09 51°15.363 2°50.21 -999 -999 -999 -999 -999
2008-03-14 05:41:14 51°15.361 2°50.185 -999 -999 -999 -999 -999
2008-03-14 05:41:19 51°15.359 2°50.16 -999 -999 -999 -999 -999
2008-03-14 05:41:24 51°15.357 2°50.136 -999 -999 -999 -999 -999
2008-03-14 05:41:29 51°15.355 2°50.111 -999 -999 -999 -999 -999
2008-03-14 05:41:34 51°15.353 2°50.086 -999 -999 -999 -999 -999
2008-03-14 05:41:39 51°15.351 2°50.061 -999 -999 -999 -999 -999
2008-03-14 05:41:44 51°15.35 2°50.037 -999 -999 -999 -999 -999
2008-03-14 05:41:49 51°15.347 2°50.012 -999 -999 -999 -999 -999
2008-03-14 05:41:54 51°15.346 2°49.987 -999 -999 -999 -999 -999
2008-03-14 05:41:59 51°15.343 2°49.963 -999 -999 -999 -999 -999
2008-03-14 05:42:04 51°15.341 2°49.938 -999 -999 -999 -999 -999
2008-03-14 05:42:09 51°15.339 2°49.913 -999 -999 -999 -999 -999
2008-03-14 05:42:14 51°15.336 2°49.889 -999 -999 -999 -999 -999
2008-03-14 05:42:19 51°15.335 2°49.864 -999 -999 -999 -999 -999
2008-03-14 05:42:24 51°15.332 2°49.84 -999 -999 -999 -999 -999
2008-03-14 05:42:29 51°15.33 2°49.815 -999 -999 -999 -999 -999
2008-03-14 05:42:34 51°15.328 2°49.79 -999 -999 -999 -999 -999
2008-03-14 05:42:39 51°15.326 2°49.765 -999 -999 -999 -999 -999
2008-03-14 05:42:44 51°15.324 2°49.74 -999 -999 -999 -999 -999
2008-03-14 05:42:49 51°15.322 2°49.716 -999 -999 -999 -999 -999
2008-03-14 05:42:54 51°15.32 2°49.691 -999 -999 -999 -999 -999
2008-03-14 05:42:59 51°15.318 2°49.666 -999 -999 -999 -999 -999
2008-03-14 05:43:04 51°15.316 2°49.641 -999 -999 -999 -999 -999
2008-03-14 05:43:09 51°15.314 2°49.616 -999 -999 -999 -999 -999
2008-03-14 05:43:14 51°15.312 2°49.591 -999 -999 -999 -999 -999
2008-03-14 05:43:19 51°15.309 2°49.567 -999 -999 -999 -999 -999
2008-03-14 05:43:24 51°15.308 2°49.542 -999 -999 -999 -999 -999
2008-03-14 05:43:30 51°15.305 2°49.512 -999 -999 -999 -999 -999
2008-03-14 05:43:34 51°15.303 2°49.492 -999 -999 -999 -999 -999
2008-03-14 05:43:39 51°15.301 2°49.467 -999 -999 -999 -999 -999
2008-03-14 05:43:44 51°15.299 2°49.443 -999 -999 -999 -999 -999
2008-03-14 05:43:49 51°15.297 2°49.418 -999 -999 -999 -999 -999
2008-03-14 05:43:54 51°15.295 2°49.393 -999 -999 -999 -999 -999
2008-03-14 05:43:59 51°15.294 2°49.368 -999 -999 -999 -999 -999
2008-03-14 05:44:04 51°15.292 2°49.343 -999 -999 -999 -999 -999
2008-03-14 05:44:09 51°15.29 2°49.318 -999 -999 -999 -999 -999
2008-03-14 05:44:14 51°15.288 2°49.293 -999 -999 -999 -999 -999
2008-03-14 05:44:19 51°15.286 2°49.268 -999 -999 -999 -999 -999
2008-03-14 05:44:24 51°15.284 2°49.243 -999 -999 -999 -999 -999
2008-03-14 05:44:29 51°15.282 2°49.219 -999 -999 -999 -999 -999
2008-03-14 05:44:34 51°15.279 2°49.194 -999 -999 -999 -999 -999
2008-03-14 05:44:39 51°15.277 2°49.169 -999 -999 -999 -999 -999
2008-03-14 05:44:44 51°15.275 2°49.144 -999 -999 -999 -999 -999
2008-03-14 05:44:49 51°15.272 2°49.12 -999 -999 -999 -999 -999
2008-03-14 05:44:54 51°15.27 2°49.095 -999 -999 -999 -999 -999
2008-03-14 05:44:59 51°15.268 2°49.07 -999 -999 -999 -999 -999
2008-03-14 05:45:04 51°15.266 2°49.045 -999 -999 -999 -999 -999
2008-03-14 05:45:09 51°15.263 2°49.021 -999 -999 -999 -999 -999
2008-03-14 05:45:14 51°15.261 2°48.996 -999 -999 -999 -999 -999
2008-03-14 05:45:19 51°15.259 2°48.972 -999 -999 -999 -999 -999
2008-03-14 05:45:24 51°15.256 2°48.947 -999 -999 -999 -999 -999
2008-03-14 05:45:29 51°15.254 2°48.922 -999 -999 -999 -999 -999
2008-03-14 05:45:34 51°15.252 2°48.898 -999 -999 -999 -999 -999
2008-03-14 05:45:39 51°15.249 2°48.873 -999 -999 -999 -999 -999
2008-03-14 05:45:44 51°15.247 2°48.849 -999 -999 -999 -999 -999
2008-03-14 05:45:50 51°15.245 2°48.819 -999 -999 -999 -999 -999
2008-03-14 05:45:54 51°15.243 2°48.8 -999 -999 -999 -999 -999
2008-03-14 05:45:59 51°15.24 2°48.775 -999 -999 -999 -999 -999
2008-03-14 05:46:04 51°15.238 2°48.75 -999 -999 -999 -999 -999
2008-03-14 05:46:09 51°15.236 2°48.726 -999 -999 -999 -999 -999
2008-03-14 05:46:14 51°15.234 2°48.702 -999 -999 -999 -999 -999
2008-03-14 05:46:19 51°15.231 2°48.677 -999 -999 -999 -999 -999
2008-03-14 05:46:24 51°15.229 2°48.652 -999 -999 -999 -999 -999
2008-03-14 05:46:29 51°15.227 2°48.628 -999 -999 -999 -999 -999
2008-03-14 05:46:34 51°15.225 2°48.603 -999 -999 -999 -999 -999
2008-03-14 05:46:39 51°15.222 2°48.578 -999 -999 -999 -999 -999
2008-03-14 05:46:44 51°15.22 2°48.554 -999 -999 -999 -999 -999
2008-03-14 05:46:49 51°15.218 2°48.529 -999 -999 -999 -999 -999
2008-03-14 05:46:54 51°15.215 2°48.505 -999 -999 -999 -999 -999
2008-03-14 05:46:59 51°15.213 2°48.48 -999 -999 -999 -999 -999
2008-03-14 05:47:04 51°15.211 2°48.455 -999 -999 -999 -999 -999
2008-03-14 05:47:09 51°15.209 2°48.431 -999 -999 -999 -999 -999
2008-03-14 05:47:14 51°15.207 2°48.406 -999 -999 -999 -999 -999
2008-03-14 05:47:19 51°15.204 2°48.381 -999 -999 -999 -999 -999
2008-03-14 05:47:24 51°15.202 2°48.356 -999 -999 -999 -999 -999
2008-03-14 05:47:29 51°15.199 2°48.332 -999 -999 -999 -999 -999
2008-03-14 05:47:34 51°15.198 2°48.307 -999 -999 -999 -999 -999
2008-03-14 05:47:39 51°15.196 2°48.282 -999 -999 -999 -999 -999
2008-03-14 05:47:44 51°15.193 2°48.258 -999 -999 -999 -999 -999
2008-03-14 05:47:50 51°15.191 2°48.228 -999 -999 -999 -999 -999
2008-03-14 05:47:54 51°15.189 2°48.208 -999 -999 -999 -999 -999
2008-03-14 05:47:59 51°15.187 2°48.183 -999 -999 -999 -999 -999
2008-03-14 05:48:04 51°15.185 2°48.159 -999 -999 -999 -999 -999
2008-03-14 05:48:09 51°15.182 2°48.134 -999 -999 -999 -999 -999
2008-03-14 05:48:14 51°15.18 2°48.11 -999 -999 -999 -999 -999
2008-03-14 05:48:19 51°15.178 2°48.085 -999 -999 -999 -999 -999
2008-03-14 05:48:24 51°15.175 2°48.06 -999 -999 -999 -999 -999
2008-03-14 05:48:29 51°15.173 2°48.035 -999 -999 -999 -999 -999
2008-03-14 05:48:34 51°15.171 2°48.011 -999 -999 -999 -999 -999
2008-03-14 05:48:39 51°15.169 2°47.986 -999 -999 -999 -999 -999
2008-03-14 05:48:44 51°15.167 2°47.961 -999 -999 -999 -999 -999
2008-03-14 05:48:49 51°15.164 2°47.937 -999 -999 -999 -999 -999
2008-03-14 05:48:54 51°15.162 2°47.912 -999 -999 -999 -999 -999
2008-03-14 05:48:59 51°15.16 2°47.887 -999 -999 -999 -999 -999
2008-03-14 05:49:04 51°15.157 2°47.862 -999 -999 -999 -999 -999
2008-03-14 05:49:09 51°15.155 2°47.837 -999 -999 -999 -999 -999
2008-03-14 05:49:14 51°15.153 2°47.813 -999 -999 -999 -999 -999
2008-03-14 05:49:19 51°15.151 2°47.788 -999 -999 -999 -999 -999
2008-03-14 05:49:24 51°15.149 2°47.763 -999 -999 -999 -999 -999
2008-03-14 05:49:29 51°15.146 2°47.738 -999 -999 -999 -999 -999
2008-03-14 05:49:34 51°15.144 2°47.714 -999 -999 -999 -999 -999
2008-03-14 05:49:39 51°15.142 2°47.689 -999 -999 -999 -999 -999
2008-03-14 05:49:44 51°15.14 2°47.664 -999 -999 -999 -999 -999
2008-03-14 05:49:49 51°15.138 2°47.639 -999 -999 -999 -999 -999
2008-03-14 05:49:54 51°15.135 2°47.614 -999 -999 -999 -999 -999
2008-03-14 05:49:59 51°15.134 2°47.589 -999 -999 -999 -999 -999
2008-03-14 05:50:04 51°15.131 2°47.564 -999 -999 -999 -999 -999
2008-03-14 05:50:09 51°15.129 2°47.54 -999 -999 -999 -999 -999
2008-03-14 05:50:14 51°15.126 2°47.515 -999 -999 -999 -999 -999
2008-03-14 05:50:19 51°15.124 2°47.49 -999 -999 -999 -999 -999
2008-03-14 05:50:24 51°15.122 2°47.465 -999 -999 -999 -999 -999
2008-03-14 05:50:29 51°15.119 2°47.44 -999 -999 -999 -999 -999
2008-03-14 05:50:34 51°15.117 2°47.415 -999 -999 -999 -999 -999
2008-03-14 05:50:39 51°15.115 2°47.39 -999 -999 -999 -999 -999
2008-03-14 05:50:44 51°15.113 2°47.366 -999 -999 -999 -999 -999
2008-03-14 05:50:49 51°15.11 2°47.341 -999 -999 -999 -999 -999
2008-03-14 05:50:54 51°15.108 2°47.317 -999 -999 -999 -999 -999
2008-03-14 05:50:59 51°15.106 2°47.292 -999 -999 -999 -999 -999
2008-03-14 05:51:04 51°15.104 2°47.267 -999 -999 -999 -999 -999
2008-03-14 05:51:09 51°15.102 2°47.243 -999 -999 -999 -999 -999
2008-03-14 05:51:14 51°15.1 2°47.218 -999 -999 -999 -999 -999
2008-03-14 05:51:19 51°15.097 2°47.193 -999 -999 -999 -999 -999
2008-03-14 05:51:24 51°15.095 2°47.168 -999 -999 -999 -999 -999
2008-03-14 05:51:29 51°15.093 2°47.143 -999 -999 -999 -999 -999
2008-03-14 05:51:34 51°15.091 2°47.118 -999 -999 -999 -999 -999
2008-03-14 05:51:39 51°15.089 2°47.092 -999 -999 -999 -999 -999
2008-03-14 05:51:44 51°15.086 2°47.067 -999 -999 -999 -999 -999
2008-03-14 05:51:49 51°15.084 2°47.042 -999 -999 -999 -999 -999
2008-03-14 05:51:54 51°15.081 2°47.017 -999 -999 -999 -999 -999
2008-03-14 05:51:59 51°15.079 2°46.992 -999 -999 -999 -999 -999
2008-03-14 05:52:04 51°15.077 2°46.968 -999 -999 -999 -999 -999
2008-03-14 05:52:09 51°15.075 2°46.943 -999 -999 -999 -999 -999
2008-03-14 05:52:14 51°15.073 2°46.918 -999 -999 -999 -999 -999
2008-03-14 05:52:19 51°15.07 2°46.893 -999 -999 -999 -999 -999
2008-03-14 05:52:24 51°15.068 2°46.868 -999 -999 -999 -999 -999
2008-03-14 05:52:29 51°15.066 2°46.844 -999 -999 -999 -999 -999
2008-03-14 05:52:34 51°15.064 2°46.818 -999 -999 -999 -999 -999
2008-03-14 05:52:39 51°15.062 2°46.793 -999 -999 -999 -999 -999
2008-03-14 05:52:44 51°15.06 2°46.768 -999 -999 -999 -999 -999
2008-03-14 05:52:50 51°15.057 2°46.738 -999 -999 -999 -999 -999
2008-03-14 05:52:54 51°15.056 2°46.718 -999 -999 -999 -999 -999
2008-03-14 05:52:59 51°15.054 2°46.693 -999 -999 -999 -999 -999
2008-03-14 05:53:04 51°15.051 2°46.668 -999 -999 -999 -999 -999
2008-03-14 05:53:09 51°15.049 2°46.642 -999 -999 -999 -999 -999
2008-03-14 05:53:14 51°15.047 2°46.617 -999 -999 -999 -999 -999
2008-03-14 05:53:19 51°15.045 2°46.592 -999 -999 -999 -999 -999
2008-03-14 05:53:24 51°15.043 2°46.566 -999 -999 -999 -999 -999
2008-03-14 05:53:29 51°15.041 2°46.541 -999 -999 -999 -999 -999
2008-03-14 05:53:34 51°15.039 2°46.515 -999 -999 -999 -999 -999
2008-03-14 05:53:39 51°15.037 2°46.49 -999 -999 -999 -999 -999
2008-03-14 05:53:44 51°15.034 2°46.465 -999 -999 -999 -999 -999
2008-03-14 05:53:49 51°15.033 2°46.44 -999 -999 -999 -999 -999
2008-03-14 05:53:54 51°15.03 2°46.415 -999 -999 -999 -999 -999
2008-03-14 05:53:59 51°15.028 2°46.39 -999 -999 -999 -999 -999
2008-03-14 05:54:04 51°15.026 2°46.365 -999 -999 -999 -999 -999
2008-03-14 05:54:09 51°15.024 2°46.34 -999 -999 -999 -999 -999
2008-03-14 05:54:14 51°15.021 2°46.316 -999 -999 -999 -999 -999
2008-03-14 05:54:19 51°15.02 2°46.291 -999 -999 -999 -999 -999
2008-03-14 05:54:24 51°15.017 2°46.266 -999 -999 -999 -999 -999
2008-03-14 05:54:29 51°15.015 2°46.241 -999 -999 -999 -999 -999
2008-03-14 05:54:34 51°15.013 2°46.216 -999 -999 -999 -999 -999
2008-03-14 05:54:39 51°15.011 2°46.191 -999 -999 -999 -999 -999
2008-03-14 05:54:44 51°15.009 2°46.167 -999 -999 -999 -999 -999
2008-03-14 05:54:49 51°15.007 2°46.142 -999 -999 -999 -999 -999
2008-03-14 05:54:54 51°15.004 2°46.117 -999 -999 -999 -999 -999
2008-03-14 05:54:59 51°15.002 2°46.093 -999 -999 -999 -999 -999
2008-03-14 05:55:04 51°15 2°46.068 -999 -999 -999 -999 -999
2008-03-14 05:55:10 51°14.998 2°46.038 -999 -999 -999 -999 -999
2008-03-14 05:55:14 51°14.996 2°46.018 -999 -999 -999 -999 -999
2008-03-14 05:55:19 51°14.995 2°45.993 -999 -999 -999 -999 -999
2008-03-14 05:55:24 51°14.992 2°45.968 -999 -999 -999 -999 -999
2008-03-14 05:55:29 51°14.99 2°45.944 -999 -999 -999 -999 -999
2008-03-14 05:55:34 51°14.988 2°45.919 -999 -999 -999 -999 -999
2008-03-14 05:55:39 51°14.986 2°45.894 -999 -999 -999 -999 -999
2008-03-14 05:55:44 51°14.984 2°45.87 -999 -999 -999 -999 -999
2008-03-14 05:55:49 51°14.982 2°45.846 -999 -999 -999 -999 -999
2008-03-14 05:55:54 51°14.98 2°45.821 -999 -999 -999 -999 -999
2008-03-14 05:55:59 51°14.978 2°45.797 -999 -999 -999 -999 -999
2008-03-14 05:56:04 51°14.976 2°45.772 -999 -999 -999 -999 -999
2008-03-14 05:56:09 51°14.974 2°45.748 -999 -999 -999 -999 -999
2008-03-14 05:56:14 51°14.972 2°45.724 -999 -999 -999 -999 -999
2008-03-14 05:56:19 51°14.97 2°45.699 -999 -999 -999 -999 -999
2008-03-14 05:56:24 51°14.967 2°45.675 -999 -999 -999 -999 -999
2008-03-14 05:56:29 51°14.965 2°45.65 -999 -999 -999 -999 -999
2008-03-14 05:56:34 51°14.963 2°45.626 -999 -999 -999 -999 -999
2008-03-14 05:56:39 51°14.961 2°45.601 -999 -999 -999 -999 -999
2008-03-14 05:56:44 51°14.959 2°45.577 -999 -999 -999 -999 -999
2008-03-14 05:56:49 51°14.958 2°45.552 -999 -999 -999 -999 -999
2008-03-14 05:56:54 51°14.956 2°45.527 -999 -999 -999 -999 -999
2008-03-14 05:56:59 51°14.954 2°45.503 -999 -999 -999 -999 -999
2008-03-14 05:57:04 51°14.952 2°45.478 -999 -999 -999 -999 -999
2008-03-14 05:57:10 51°14.95 2°45.449 -999 -999 -999 -999 -999
2008-03-14 05:57:14 51°14.948 2°45.429 -999 -999 -999 -999 -999
2008-03-14 05:57:19 51°14.947 2°45.404 -999 -999 -999 -999 -999
2008-03-14 05:57:24 51°14.945 2°45.38 -999 -999 -999 -999 -999
2008-03-14 05:57:29 51°14.943 2°45.355 -999 -999 -999 -999 -999
2008-03-14 05:57:34 51°14.941 2°45.331 -999 -999 -999 -999 -999
2008-03-14 05:57:39 51°14.939 2°45.306 -999 -999 -999 -999 -999
2008-03-14 05:57:44 51°14.936 2°45.282 -999 -999 -999 -999 -999
2008-03-14 05:57:49 51°14.934 2°45.257 -999 -999 -999 -999 -999
2008-03-14 05:57:54 51°14.931 2°45.233 -999 -999 -999 -999 -999
2008-03-14 05:57:59 51°14.928 2°45.209 -999 -999 -999 -999 -999
2008-03-14 05:58:04 51°14.925 2°45.185 -999 -999 -999 -999 -999
2008-03-14 05:58:09 51°14.922 2°45.161 -999 -999 -999 -999 -999
2008-03-14 05:58:14 51°14.919 2°45.137 -999 -999 -999 -999 -999
2008-03-14 05:58:19 51°14.916 2°45.113 -999 -999 -999 -999 -999
2008-03-14 05:58:24 51°14.913 2°45.089 -999 -999 -999 -999 -999
2008-03-14 05:58:29 51°14.911 2°45.064 -999 -999 -999 -999 -999
2008-03-14 05:58:34 51°14.908 2°45.04 -999 -999 -999 -999 -999
2008-03-14 05:58:39 51°14.905 2°45.017 -999 -999 -999 -999 -999
2008-03-14 05:58:44 51°14.902 2°44.992 -999 -999 -999 -999 -999
2008-03-14 05:58:49 51°14.899 2°44.968 -999 -999 -999 -999 -999
2008-03-14 05:58:54 51°14.896 2°44.944 -999 -999 -999 -999 -999
2008-03-14 05:58:59 51°14.894 2°44.92 -999 -999 -999 -999 -999
2008-03-14 05:59:04 51°14.891 2°44.896 -999 -999 -999 -999 -999
2008-03-14 05:59:09 51°14.888 2°44.872 -999 -999 -999 -999 -999
2008-03-14 05:59:14 51°14.885 2°44.848 -999 -999 -999 -999 -999
2008-03-14 05:59:19 51°14.883 2°44.823 -999 -999 -999 -999 -999
2008-03-14 05:59:24 51°14.88 2°44.799 -999 -999 -999 -999 -999
2008-03-14 05:59:30 51°14.876 2°44.77 -999 -999 -999 -999 -999
2008-03-14 05:59:34 51°14.874 2°44.751 -999 -999 -999 -999 -999
2008-03-14 05:59:39 51°14.871 2°44.726 -999 -999 -999 -999 -999
2008-03-14 05:59:44 51°14.869 2°44.702 -999 -999 -999 -999 -999
2008-03-14 05:59:49 51°14.866 2°44.678 -999 -999 -999 -999 -999
2008-03-14 05:59:54 51°14.863 2°44.654 -999 -999 -999 -999 -999
2008-03-14 05:59:59 51°14.86 2°44.63 -999 -999 -999 -999 -999
2008-03-14 06:00:04 51°14.857 2°44.605 -999 -999 -999 -999 -999
2008-03-14 06:00:09 51°14.854 2°44.581 -999 -999 -999 -999 -999
2008-03-14 06:00:14 51°14.852 2°44.557 -999 -999 -999 -999 -999
2008-03-14 06:00:19 51°14.849 2°44.532 -999 -999 -999 -999 -999
2008-03-14 06:00:24 51°14.846 2°44.508 -999 -999 -999 -999 -999
2008-03-14 06:00:29 51°14.843 2°44.484 -999 -999 -999 -999 -999
2008-03-14 06:00:34 51°14.84 2°44.46 -999 -999 -999 -999 -999
2008-03-14 06:00:39 51°14.837 2°44.436 -999 -999 -999 -999 -999
2008-03-14 06:00:44 51°14.835 2°44.412 -999 -999 -999 -999 -999
2008-03-14 06:00:49 51°14.832 2°44.387 -999 -999 -999 -999 -999
2008-03-14 06:00:54 51°14.829 2°44.363 -999 -999 -999 -999 -999
2008-03-14 06:00:59 51°14.826 2°44.339 -999 -999 -999 -999 -999
2008-03-14 06:01:04 51°14.824 2°44.315 -999 -999 -999 -999 -999
2008-03-14 06:01:09 51°14.821 2°44.291 -999 -999 -999 -999 -999
2008-03-14 06:01:14 51°14.818 2°44.267 -999 -999 -999 -999 -999
2008-03-14 06:01:19 51°14.815 2°44.242 -999 -999 -999 -999 -999
2008-03-14 06:01:24 51°14.812 2°44.218 -999 -999 -999 -999 -999
2008-03-14 06:01:30 51°14.809 2°44.189 -999 -999 -999 -999 -999
2008-03-14 06:01:34 51°14.806 2°44.17 -999 -999 -999 -999 -999
2008-03-14 06:01:39 51°14.804 2°44.145 -999 -999 -999 -999 -999
2008-03-14 06:01:44 51°14.801 2°44.121 -999 -999 -999 -999 -999
2008-03-14 06:01:50 51°14.798 2°44.092 -999 -999 -999 -999 -999
2008-03-14 06:01:54 51°14.795 2°44.072 -999 -999 -999 -999 -999
2008-03-14 06:01:59 51°14.793 2°44.048 -999 -999 -999 -999 -999
2008-03-14 06:02:04 51°14.79 2°44.023 -999 -999 -999 -999 -999
2008-03-14 06:02:09 51°14.787 2°43.999 -999 -999 -999 -999 -999
2008-03-14 06:02:14 51°14.784 2°43.975 -999 -999 -999 -999 -999
2008-03-14 06:02:19 51°14.781 2°43.95 -999 -999 -999 -999 -999
2008-03-14 06:02:24 51°14.778 2°43.926 -999 -999 -999 -999 -999
2008-03-14 06:02:29 51°14.775 2°43.902 -999 -999 -999 -999 -999
2008-03-14 06:02:34 51°14.772 2°43.877 -999 -999 -999 -999 -999
2008-03-14 06:02:39 51°14.77 2°43.853 -999 -999 -999 -999 -999
2008-03-14 06:02:44 51°14.767 2°43.829 -999 -999 -999 -999 -999
2008-03-14 06:02:49 51°14.764 2°43.804 -999 -999 -999 -999 -999
2008-03-14 06:02:54 51°14.762 2°43.78 -999 -999 -999 -999 -999
2008-03-14 06:02:59 51°14.759 2°43.755 -999 -999 -999 -999 -999
2008-03-14 06:03:04 51°14.756 2°43.731 -999 -999 -999 -999 -999
2008-03-14 06:03:09 51°14.753 2°43.706 -999 -999 -999 -999 -999
2008-03-14 06:03:14 51°14.751 2°43.682 -999 -999 -999 -999 -999
2008-03-14 06:03:19 51°14.748 2°43.657 -999 -999 -999 -999 -999
2008-03-14 06:03:24 51°14.745 2°43.633 -999 -999 -999 -999 -999
2008-03-14 06:03:29 51°14.742 2°43.609 -999 -999 -999 -999 -999
2008-03-14 06:03:34 51°14.74 2°43.584 -999 -999 -999 -999 -999
2008-03-14 06:03:39 51°14.737 2°43.56 -999 -999 -999 -999 -999
2008-03-14 06:03:44 51°14.734 2°43.536 -999 -999 -999 -999 -999
2008-03-14 06:03:50 51°14.731 2°43.506 -999 -999 -999 -999 -999
2008-03-14 06:03:54 51°14.729 2°43.487 -999 -999 -999 -999 -999
2008-03-14 06:03:59 51°14.726 2°43.462 -999 -999 -999 -999 -999
2008-03-14 06:04:04 51°14.723 2°43.437 -999 -999 -999 -999 -999
2008-03-14 06:04:09 51°14.72 2°43.413 -999 -999 -999 -999 -999
2008-03-14 06:04:14 51°14.718 2°43.388 -999 -999 -999 -999 -999
2008-03-14 06:04:19 51°14.715 2°43.364 -999 -999 -999 -999 -999
2008-03-14 06:04:24 51°14.712 2°43.34 -999 -999 -999 -999 -999
2008-03-14 06:04:29 51°14.709 2°43.315 -999 -999 -999 -999 -999
2008-03-14 06:04:34 51°14.707 2°43.291 -999 -999 -999 -999 -999
2008-03-14 06:04:39 51°14.704 2°43.267 -999 -999 -999 -999 -999
2008-03-14 06:04:44 51°14.701 2°43.242 -999 -999 -999 -999 -999
2008-03-14 06:04:49 51°14.699 2°43.218 -999 -999 -999 -999 -999
2008-03-14 06:04:54 51°14.696 2°43.193 -999 -999 -999 -999 -999
2008-03-14 06:04:59 51°14.694 2°43.169 -999 -999 -999 -999 -999
2008-03-14 06:05:04 51°14.692 2°43.144 -999 -999 -999 -999 -999
2008-03-14 06:05:09 51°14.69 2°43.12 -999 -999 -999 -999 -999
2008-03-14 06:05:14 51°14.688 2°43.095 -999 -999 -999 -999 -999
2008-03-14 06:05:19 51°14.686 2°43.07 -999 -999 -999 -999 -999
2008-03-14 06:05:24 51°14.685 2°43.046 -999 -999 -999 -999 -999
2008-03-14 06:05:29 51°14.683 2°43.021 -999 -999 -999 -999 -999
2008-03-14 06:05:34 51°14.682 2°42.996 -999 -999 -999 -999 -999
2008-03-14 06:05:39 51°14.681 2°42.971 -999 -999 -999 -999 -999
2008-03-14 06:05:44 51°14.679 2°42.947 -999 -999 -999 -999 -999
2008-03-14 06:05:50 51°14.677 2°42.917 -999 -999 -999 -999 -999
2008-03-14 06:05:54 51°14.676 2°42.897 -999 -999 -999 -999 -999
2008-03-14 06:05:59 51°14.674 2°42.872 -999 -999 -999 -999 -999
2008-03-14 06:06:04 51°14.673 2°42.847 -999 -999 -999 -999 -999
2008-03-14 06:06:09 51°14.671 2°42.822 -999 -999 -999 -999 -999
2008-03-14 06:06:14 51°14.67 2°42.797 -999 -999 -999 -999 -999
2008-03-14 06:06:19 51°14.668 2°42.772 -999 -999 -999 -999 -999
2008-03-14 06:06:24 51°14.667 2°42.747 -999 -999 -999 -999 -999
2008-03-14 06:06:29 51°14.665 2°42.722 -999 -999 -999 -999 -999
2008-03-14 06:06:34 51°14.664 2°42.698 -999 -999 -999 -999 -999
2008-03-14 06:06:39 51°14.662 2°42.672 -999 -999 -999 -999 -999
2008-03-14 06:06:44 51°14.661 2°42.647 -999 -999 -999 -999 -999
2008-03-14 06:06:49 51°14.659 2°42.623 -999 -999 -999 -999 -999
2008-03-14 06:06:54 51°14.658 2°42.598 -999 -999 -999 -999 -999
2008-03-14 06:06:59 51°14.657 2°42.573 -999 -999 -999 -999 -999
2008-03-14 06:07:04 51°14.656 2°42.548 -999 -999 -999 -999 -999
2008-03-14 06:07:09 51°14.655 2°42.523 -999 -999 -999 -999 -999
2008-03-14 06:07:14 51°14.654 2°42.498 -999 -999 -999 -999 -999
2008-03-14 06:07:19 51°14.654 2°42.473 -999 -999 -999 -999 -999
2008-03-14 06:07:24 51°14.653 2°42.449 -999 -999 -999 -999 -999
2008-03-14 06:07:29 51°14.652 2°42.424 -999 -999 -999 -999 -999
2008-03-14 06:07:34 51°14.651 2°42.399 -999 -999 -999 -999 -999
2008-03-14 06:07:39 51°14.65 2°42.374 -999 -999 -999 -999 -999
2008-03-14 06:07:44 51°14.649 2°42.35 -999 -999 -999 -999 -999
2008-03-14 06:07:49 51°14.648 2°42.325 -999 -999 -999 -999 -999
2008-03-14 06:07:54 51°14.647 2°42.3 -999 -999 -999 -999 -999
2008-03-14 06:07:59 51°14.646 2°42.275 -999 -999 -999 -999 -999
2008-03-14 06:08:04 51°14.645 2°42.25 -999 -999 -999 -999 -999
2008-03-14 06:08:09 51°14.645 2°42.225 -999 -999 -999 -999 -999
2008-03-14 06:08:14 51°14.644 2°42.2 -999 -999 -999 -999 -999
2008-03-14 06:08:19 51°14.645 2°42.175 -999 -999 -999 -999 -999
2008-03-14 06:08:24 51°14.646 2°42.15 -999 -999 -999 -999 -999
2008-03-14 06:08:29 51°14.647 2°42.124 -999 -999 -999 -999 -999
2008-03-14 06:08:34 51°14.648 2°42.099 -999 -999 -999 -999 -999
2008-03-14 06:08:39 51°14.651 2°42.074 -999 -999 -999 -999 -999
2008-03-14 06:08:44 51°14.652 2°42.049 -999 -999 -999 -999 -999
2008-03-14 06:08:49 51°14.654 2°42.024 -999 -999 -999 -999 -999
2008-03-14 06:08:54 51°14.656 2°41.998 -999 -999 -999 -999 -999
2008-03-14 06:08:59 51°14.659 2°41.973 -999 -999 -999 -999 -999
2008-03-14 06:09:04 51°14.661 2°41.948 -999 -999 -999 -999 -999
2008-03-14 06:09:09 51°14.663 2°41.922 -999 -999 -999 -999 -999
2008-03-14 06:09:14 51°14.666 2°41.897 -999 -999 -999 -999 -999
2008-03-14 06:09:19 51°14.668 2°41.872 -999 -999 -999 -999 -999
2008-03-14 06:09:24 51°14.671 2°41.846 -999 -999 -999 -999 -999
2008-03-14 06:09:29 51°14.673 2°41.821 -999 -999 -999 -999 -999
2008-03-14 06:09:34 51°14.676 2°41.796 -999 -999 -999 -999 -999
2008-03-14 06:09:39 51°14.679 2°41.771 -999 -999 -999 -999 -999
2008-03-14 06:09:44 51°14.682 2°41.745 -999 -999 -999 -999 -999
2008-03-14 06:09:49 51°14.685 2°41.72 -999 -999 -999 -999 -999
2008-03-14 06:09:54 51°14.687 2°41.695 -999 -999 -999 -999 -999
2008-03-14 06:09:59 51°14.69 2°41.67 -999 -999 -999 -999 -999
2008-03-14 06:10:04 51°14.692 2°41.645 -999 -999 -999 -999 -999
2008-03-14 06:10:09 51°14.695 2°41.619 -999 -999 -999 -999 -999
2008-03-14 06:10:14 51°14.697 2°41.594 -999 -999 -999 -999 -999
2008-03-14 06:10:19 51°14.7 2°41.569 -999 -999 -999 -999 -999
2008-03-14 06:10:24 51°14.702 2°41.544 -999 -999 -999 -999 -999
2008-03-14 06:10:29 51°14.705 2°41.518 -999 -999 -999 -999 -999
2008-03-14 06:10:34 51°14.708 2°41.493 -999 -999 -999 -999 -999
2008-03-14 06:10:39 51°14.71 2°41.468 -999 -999 -999 -999 -999
2008-03-14 06:10:44 51°14.713 2°41.442 -999 -999 -999 -999 -999
2008-03-14 06:10:50 51°14.716 2°41.412 -999 -999 -999 -999 -999
2008-03-14 06:10:54 51°14.718 2°41.391 -999 -999 -999 -999 -999
2008-03-14 06:10:59 51°14.721 2°41.366 -999 -999 -999 -999 -999
2008-03-14 06:11:04 51°14.723 2°41.341 -999 -999 -999 -999 -999
2008-03-14 06:11:09 51°14.725 2°41.316 -999 -999 -999 -999 -999
2008-03-14 06:11:14 51°14.727 2°41.29 -999 -999 -999 -999 -999
2008-03-14 06:11:19 51°14.73 2°41.265 -999 -999 -999 -999 -999
2008-03-14 06:11:24 51°14.731 2°41.24 -999 -999 -999 -999 -999
2008-03-14 06:11:29 51°14.733 2°41.214 -999 -999 -999 -999 -999
2008-03-14 06:11:34 51°14.735 2°41.188 -999 -999 -999 -999 -999
2008-03-14 06:11:39 51°14.737 2°41.163 -999 -999 -999 -999 -999
2008-03-14 06:11:44 51°14.739 2°41.137 -999 -999 -999 -999 -999
2008-03-14 06:11:49 51°14.741 2°41.112 -999 -999 -999 -999 -999
2008-03-14 06:11:54 51°14.743 2°41.086 -999 -999 -999 -999 -999
2008-03-14 06:11:59 51°14.745 2°41.06 -999 -999 -999 -999 -999
2008-03-14 06:12:04 51°14.747 2°41.035 -999 -999 -999 -999 -999
2008-03-14 06:12:09 51°14.749 2°41.009 -999 -999 -999 -999 -999
2008-03-14 06:12:14 51°14.751 2°40.983 -999 -999 -999 -999 -999
2008-03-14 06:12:19 51°14.753 2°40.958 -999 -999 -999 -999 -999
2008-03-14 06:12:24 51°14.754 2°40.932 -999 -999 -999 -999 -999
2008-03-14 06:12:29 51°14.756 2°40.907 -999 -999 -999 -999 -999
2008-03-14 06:12:34 51°14.759 2°40.881 -999 -999 -999 -999 -999
2008-03-14 06:12:39 51°14.761 2°40.856 -999 -999 -999 -999 -999
2008-03-14 06:12:44 51°14.763 2°40.831 -999 -999 -999 -999 -999
2008-03-14 06:12:49 51°14.764 2°40.806 -999 -999 -999 -999 -999
2008-03-14 06:12:54 51°14.767 2°40.781 -999 -999 -999 -999 -999
2008-03-14 06:12:59 51°14.769 2°40.755 -999 -999 -999 -999 -999
2008-03-14 06:13:04 51°14.77 2°40.73 -999 -999 -999 -999 -999
2008-03-14 06:13:10 51°14.773 2°40.7 -999 -999 -999 -999 -999
2008-03-14 06:13:14 51°14.774 2°40.679 -999 -999 -999 -999 -999
2008-03-14 06:13:19 51°14.776 2°40.654 -999 -999 -999 -999 -999
2008-03-14 06:13:24 51°14.778 2°40.629 -999 -999 -999 -999 -999
2008-03-14 06:13:30 51°14.781 2°40.598 -999 -999 -999 -999 -999
2008-03-14 06:13:34 51°14.782 2°40.578 -999 -999 -999 -999 -999
2008-03-14 06:13:39 51°14.784 2°40.553 -999 -999 -999 -999 -999
2008-03-14 06:13:44 51°14.786 2°40.527 -999 -999 -999 -999 -999
2008-03-14 06:13:49 51°14.788 2°40.501 -999 -999 -999 -999 -999
2008-03-14 06:13:54 51°14.79 2°40.476 -999 -999 -999 -999 -999
2008-03-14 06:13:59 51°14.791 2°40.45 -999 -999 -999 -999 -999
2008-03-14 06:14:04 51°14.793 2°40.425 -999 -999 -999 -999 -999
2008-03-14 06:14:09 51°14.794 2°40.399 -999 -999 -999 -999 -999
2008-03-14 06:14:14 51°14.795 2°40.373 -999 -999 -999 -999 -999
2008-03-14 06:14:19 51°14.796 2°40.348 -999 -999 -999 -999 -999
2008-03-14 06:14:24 51°14.798 2°40.322 -999 -999 -999 -999 -999
2008-03-14 06:14:29 51°14.799 2°40.297 -999 -999 -999 -999 -999
2008-03-14 06:14:34 51°14.8 2°40.271 -999 -999 -999 -999 -999
2008-03-14 06:14:39 51°14.802 2°40.246 -999 -999 -999 -999 -999
2008-03-14 06:14:44 51°14.803 2°40.22 -999 -999 -999 -999 -999
2008-03-14 06:14:49 51°14.805 2°40.195 -999 -999 -999 -999 -999
2008-03-14 06:14:54 51°14.807 2°40.169 -999 -999 -999 -999 -999
2008-03-14 06:14:59 51°14.808 2°40.144 -999 -999 -999 -999 -999
2008-03-14 06:15:04 51°14.81 2°40.118 -999 -999 -999 -999 -999
2008-03-14 06:15:10 51°14.812 2°40.088 -999 -999 -999 -999 -999
2008-03-14 06:15:14 51°14.814 2°40.067 -999 -999 -999 -999 -999
2008-03-14 06:15:19 51°14.815 2°40.042 -999 -999 -999 -999 -999
2008-03-14 06:15:24 51°14.817 2°40.017 -999 -999 -999 -999 -999
2008-03-14 06:15:30 51°14.818 2°39.986 -999 -999 -999 -999 -999
2008-03-14 06:15:34 51°14.82 2°39.966 -999 -999 -999 -999 -999
2008-03-14 06:15:39 51°14.82 2°39.94 -999 -999 -999 -999 -999
2008-03-14 06:15:44 51°14.822 2°39.915 -999 -999 -999 -999 -999
2008-03-14 06:15:49 51°14.823 2°39.89 -999 -999 -999 -999 -999
2008-03-14 06:15:54 51°14.824 2°39.864 -999 -999 -999 -999 -999
2008-03-14 06:15:59 51°14.826 2°39.839 -999 -999 -999 -999 -999
2008-03-14 06:16:04 51°14.827 2°39.814 -999 -999 -999 -999 -999
2008-03-14 06:16:09 51°14.828 2°39.789 -999 -999 -999 -999 -999
2008-03-14 06:16:14 51°14.83 2°39.763 -999 -999 -999 -999 -999
2008-03-14 06:16:19 51°14.831 2°39.738 -999 -999 -999 -999 -999
2008-03-14 06:16:24 51°14.833 2°39.713 -999 -999 -999 -999 -999
2008-03-14 06:16:29 51°14.834 2°39.688 -999 -999 -999 -999 -999
2008-03-14 06:16:34 51°14.836 2°39.662 -999 -999 -999 -999 -999
2008-03-14 06:16:39 51°14.837 2°39.637 -999 -999 -999 -999 -999
2008-03-14 06:16:44 51°14.839 2°39.612 -999 -999 -999 -999 -999
2008-03-14 06:16:49 51°14.841 2°39.587 -999 -999 -999 -999 -999
2008-03-14 06:16:54 51°14.842 2°39.561 -999 -999 -999 -999 -999
2008-03-14 06:16:59 51°14.843 2°39.536 -999 -999 -999 -999 -999
2008-03-14 06:17:04 51°14.845 2°39.511 -999 -999 -999 -999 -999
2008-03-14 06:17:09 51°14.846 2°39.486 -999 -999 -999 -999 -999
2008-03-14 06:17:14 51°14.848 2°39.461 -999 -999 -999 -999 -999
2008-03-14 06:17:19 51°14.849 2°39.436 -999 -999 -999 -999 -999
2008-03-14 06:17:24 51°14.851 2°39.41 -999 -999 -999 -999 -999
2008-03-14 06:17:30 51°14.852 2°39.38 -999 -999 -999 -999 -999
2008-03-14 06:17:34 51°14.853 2°39.36 -999 -999 -999 -999 -999
2008-03-14 06:17:39 51°14.855 2°39.335 -999 -999 -999 -999 -999
2008-03-14 06:17:44 51°14.856 2°39.31 -999 -999 -999 -999 -999
2008-03-14 06:17:50 51°14.858 2°39.28 -999 -999 -999 -999 -999
2008-03-14 06:17:54 51°14.859 2°39.26 -999 -999 -999 -999 -999
2008-03-14 06:17:59 51°14.86 2°39.234 -999 -999 -999 -999 -999
2008-03-14 06:18:04 51°14.862 2°39.209 -999 -999 -999 -999 -999
2008-03-14 06:18:09 51°14.863 2°39.183 -999 -999 -999 -999 -999
2008-03-14 06:18:14 51°14.865 2°39.158 -999 -999 -999 -999 -999
2008-03-14 06:18:19 51°14.866 2°39.132 -999 -999 -999 -999 -999
2008-03-14 06:18:24 51°14.868 2°39.107 -999 -999 -999 -999 -999
2008-03-14 06:18:29 51°14.868 2°39.082 -999 -999 -999 -999 -999
2008-03-14 06:18:34 51°14.869 2°39.057 -999 -999 -999 -999 -999
2008-03-14 06:18:39 51°14.869 2°39.032 -999 -999 -999 -999 -999
2008-03-14 06:18:44 51°14.87 2°39.006 -999 -999 -999 -999 -999
2008-03-14 06:18:49 51°14.87 2°38.981 -999 -999 -999 -999 -999
2008-03-14 06:18:54 51°14.87 2°38.956 -999 -999 -999 -999 -999
2008-03-14 06:18:59 51°14.87 2°38.931 -999 -999 -999 -999 -999
2008-03-14 06:19:04 51°14.871 2°38.906 -999 -999 -999 -999 -999
2008-03-14 06:19:09 51°14.871 2°38.88 -999 -999 -999 -999 -999
2008-03-14 06:19:14 51°14.872 2°38.855 -999 -999 -999 -999 -999
2008-03-14 06:19:19 51°14.873 2°38.829 -999 -999 -999 -999 -999
2008-03-14 06:19:24 51°14.873 2°38.804 -999 -999 -999 -999 -999
2008-03-14 06:19:30 51°14.873 2°38.773 -999 -999 -999 -999 -999
2008-03-14 06:19:34 51°14.874 2°38.753 -999 -999 -999 -999 -999
2008-03-14 06:19:39 51°14.875 2°38.727 -999 -999 -999 -999 -999
2008-03-14 06:19:44 51°14.875 2°38.702 -999 -999 -999 -999 -999
2008-03-14 06:19:50 51°14.876 2°38.671 -999 -999 -999 -999 -999
2008-03-14 06:19:54 51°14.877 2°38.651 -999 -999 -999 -999 -999
2008-03-14 06:19:59 51°14.878 2°38.626 -999 -999 -999 -999 -999
2008-03-14 06:20:04 51°14.88 2°38.6 -999 -999 -999 -999 -999
2008-03-14 06:20:09 51°14.88 2°38.575 -999 -999 -999 -999 -999
2008-03-14 06:20:14 51°14.882 2°38.55 -999 -999 -999 -999 -999
2008-03-14 06:20:19 51°14.883 2°38.525 -999 -999 -999 -999 -999
2008-03-14 06:20:24 51°14.884 2°38.5 -999 -999 -999 -999 -999
2008-03-14 06:20:29 51°14.885 2°38.475 -999 -999 -999 -999 -999
2008-03-14 06:20:34 51°14.886 2°38.45 -999 -999 -999 -999 -999
2008-03-14 06:20:39 51°14.887 2°38.424 -999 -999 -999 -999 -999
2008-03-14 06:20:44 51°14.888 2°38.399 -999 -999 -999 -999 -999
2008-03-14 06:20:49 51°14.888 2°38.374 -999 -999 -999 -999 -999
2008-03-14 06:20:54 51°14.889 2°38.349 -999 -999 -999 -999 -999
2008-03-14 06:20:59 51°14.89 2°38.323 -999 -999 -999 -999 -999
2008-03-14 06:21:04 51°14.892 2°38.298 -999 -999 -999 -999 -999
2008-03-14 06:21:09 51°14.892 2°38.273 -999 -999 -999 -999 -999
2008-03-14 06:21:14 51°14.893 2°38.247 -999 -999 -999 -999 -999
2008-03-14 06:21:19 51°14.894 2°38.222 -999 -999 -999 -999 -999
2008-03-14 06:21:24 51°14.895 2°38.196 -999 -999 -999 -999 -999
2008-03-14 06:21:29 51°14.896 2°38.17 -999 -999 -999 -999 -999
2008-03-14 06:21:34 51°14.898 2°38.145 -999 -999 -999 -999 -999
2008-03-14 06:21:39 51°14.898 2°38.119 -999 -999 -999 -999 -999
2008-03-14 06:21:44 51°14.899 2°38.094 -999 -999 -999 -999 -999
2008-03-14 06:21:50 51°14.9 2°38.063 -999 -999 -999 -999 -999
2008-03-14 06:21:54 51°14.901 2°38.043 -999 -999 -999 -999 -999
2008-03-14 06:21:59 51°14.902 2°38.017 -999 -999 -999 -999 -999
2008-03-14 06:22:04 51°14.902 2°37.992 -999 -999 -999 -999 -999
2008-03-14 06:22:09 51°14.904 2°37.967 -999 -999 -999 -999 -999
2008-03-14 06:22:14 51°14.904 2°37.941 -999 -999 -999 -999 -999
2008-03-14 06:22:19 51°14.905 2°37.916 -999 -999 -999 -999 -999
2008-03-14 06:22:24 51°14.906 2°37.89 -999 -999 -999 -999 -999
2008-03-14 06:22:30 51°14.907 2°37.86 -999 -999 -999 -999 -999
2008-03-14 06:22:34 51°14.908 2°37.839 -999 -999 -999 -999 -999
2008-03-14 06:22:39 51°14.909 2°37.814 -999 -999 -999 -999 -999
2008-03-14 06:22:44 51°14.91 2°37.788 -999 -999 -999 -999 -999
2008-03-14 06:22:49 51°14.911 2°37.763 -999 -999 -999 -999 -999
2008-03-14 06:22:54 51°14.912 2°37.737 -999 -999 -999 -999 -999
2008-03-14 06:22:59 51°14.913 2°37.712 -999 -999 -999 -999 -999
2008-03-14 06:23:04 51°14.914 2°37.686 -999 -999 -999 -999 -999
2008-03-14 06:23:09 51°14.914 2°37.661 -999 -999 -999 -999 -999
2008-03-14 06:23:14 51°14.916 2°37.635 -999 -999 -999 -999 -999
2008-03-14 06:23:19 51°14.916 2°37.61 -999 -999 -999 -999 -999
2008-03-14 06:23:24 51°14.918 2°37.584 -999 -999 -999 -999 -999
2008-03-14 06:23:29 51°14.918 2°37.559 -999 -999 -999 -999 -999
2008-03-14 06:23:34 51°14.919 2°37.534 -999 -999 -999 -999 -999
2008-03-14 06:23:39 51°14.92 2°37.509 -999 -999 -999 -999 -999
2008-03-14 06:23:44 51°14.921 2°37.483 -999 -999 -999 -999 -999
2008-03-14 06:23:50 51°14.922 2°37.453 -999 -999 -999 -999 -999
2008-03-14 06:23:54 51°14.923 2°37.433 -999 -999 -999 -999 -999
2008-03-14 06:23:59 51°14.924 2°37.407 -999 -999 -999 -999 -999
2008-03-14 06:24:04 51°14.925 2°37.382 -999 -999 -999 -999 -999
2008-03-14 06:24:09 51°14.927 2°37.356 -999 -999 -999 -999 -999
2008-03-14 06:24:14 51°14.927 2°37.331 -999 -999 -999 -999 -999
2008-03-14 06:24:19 51°14.928 2°37.305 -999 -999 -999 -999 -999
2008-03-14 06:24:24 51°14.93 2°37.28 -999 -999 -999 -999 -999
2008-03-14 06:24:30 51°14.931 2°37.249 -999 -999 -999 -999 -999
2008-03-14 06:24:34 51°14.932 2°37.229 -999 -999 -999 -999 -999
2008-03-14 06:24:39 51°14.933 2°37.203 -999 -999 -999 -999 -999
2008-03-14 06:24:44 51°14.934 2°37.178 -999 -999 -999 -999 -999
2008-03-14 06:24:49 51°14.934 2°37.152 -999 -999 -999 -999 -999
2008-03-14 06:24:54 51°14.935 2°37.127 -999 -999 -999 -999 -999
2008-03-14 06:24:59 51°14.935 2°37.101 -999 -999 -999 -999 -999
2008-03-14 06:25:04 51°14.936 2°37.076 -999 -999 -999 -999 -999
2008-03-14 06:25:09 51°14.936 2°37.05 -999 -999 -999 -999 -999
2008-03-14 06:25:14 51°14.937 2°37.025 -999 -999 -999 -999 -999
2008-03-14 06:25:19 51°14.937 2°36.999 -999 -999 -999 -999 -999
2008-03-14 06:25:24 51°14.938 2°36.974 -999 -999 -999 -999 -999
2008-03-14 06:25:29 51°14.939 2°36.948 -999 -999 -999 -999 -999
2008-03-14 06:25:34 51°14.939 2°36.923 -999 -999 -999 -999 -999
2008-03-14 06:25:39 51°14.94 2°36.897 -999 -999 -999 -999 -999
2008-03-14 06:25:44 51°14.941 2°36.872 -999 -999 -999 -999 -999
2008-03-14 06:25:49 51°14.941 2°36.847 -999 -999 -999 -999 -999
2008-03-14 06:25:54 51°14.942 2°36.822 -999 -999 -999 -999 -999
2008-03-14 06:25:59 51°14.943 2°36.796 -999 -999 -999 -999 -999
2008-03-14 06:26:04 51°14.943 2°36.771 -999 -999 -999 -999 -999
2008-03-14 06:26:09 51°14.944 2°36.746 -999 -999 -999 -999 -999
2008-03-14 06:26:14 51°14.944 2°36.721 -999 -999 -999 -999 -999
2008-03-14 06:26:19 51°14.944 2°36.696 -999 -999 -999 -999 -999
2008-03-14 06:26:24 51°14.944 2°36.671 -999 -999 -999 -999 -999
2008-03-14 06:26:29 51°14.945 2°36.646 -999 -999 -999 -999 -999
2008-03-14 06:26:34 51°14.945 2°36.621 -999 -999 -999 -999 -999
2008-03-14 06:26:39 51°14.946 2°36.596 -999 -999 -999 -999 -999
2008-03-14 06:26:44 51°14.946 2°36.571 -999 -999 -999 -999 -999
2008-03-14 06:26:50 51°14.947 2°36.541 -999 -999 -999 -999 -999
2008-03-14 06:26:54 51°14.947 2°36.521 -999 -999 -999 -999 -999
2008-03-14 06:26:59 51°14.948 2°36.496 -999 -999 -999 -999 -999
2008-03-14 06:27:04 51°14.949 2°36.471 -999 -999 -999 -999 -999
2008-03-14 06:27:10 51°14.949 2°36.441 -999 -999 -999 -999 -999
2008-03-14 06:27:14 51°14.949 2°36.421 -999 -999 -999 -999 -999
2008-03-14 06:27:19 51°14.949 2°36.396 -999 -999 -999 -999 -999
2008-03-14 06:27:24 51°14.951 2°36.371 -999 -999 -999 -999 -999
2008-03-14 06:27:29 51°14.951 2°36.346 -999 -999 -999 -999 -999
2008-03-14 06:27:34 51°14.951 2°36.321 -999 -999 -999 -999 -999
2008-03-14 06:27:39 51°14.952 2°36.297 -999 -999 -999 -999 -999
2008-03-14 06:27:44 51°14.953 2°36.272 -999 -999 -999 -999 -999
2008-03-14 06:27:49 51°14.953 2°36.247 -999 -999 -999 -999 -999
2008-03-14 06:27:54 51°14.954 2°36.222 -999 -999 -999 -999 -999
2008-03-14 06:27:59 51°14.954 2°36.197 -999 -999 -999 -999 -999
2008-03-14 06:28:04 51°14.955 2°36.173 -999 -999 -999 -999 -999
2008-03-14 06:28:09 51°14.955 2°36.148 -999 -999 -999 -999 -999
2008-03-14 06:28:14 51°14.956 2°36.123 -999 -999 -999 -999 -999
2008-03-14 06:28:19 51°14.956 2°36.098 -999 -999 -999 -999 -999
2008-03-14 06:28:24 51°14.957 2°36.073 -999 -999 -999 -999 -999
2008-03-14 06:28:29 51°14.958 2°36.047 -999 -999 -999 -999 -999
2008-03-14 06:28:34 51°14.958 2°36.022 -999 -999 -999 -999 -999
2008-03-14 06:28:39 51°14.959 2°35.997 -999 -999 -999 -999 -999
2008-03-14 06:28:45 51°14.96 2°35.967 -999 -999 -999 -999 -999
2008-03-14 06:28:50 51°14.96 2°35.942 -999 -999 -999 -999 -999
2008-03-14 06:28:54 51°14.961 2°35.922 -999 -999 -999 -999 -999
2008-03-14 06:28:59 51°14.961 2°35.897 -999 -999 -999 -999 -999
2008-03-14 06:29:04 51°14.962 2°35.872 -999 -999 -999 -999 -999
2008-03-14 06:29:10 51°14.962 2°35.842 -999 -999 -999 -999 -999
2008-03-14 06:29:14 51°14.963 2°35.822 -999 -999 -999 -999 -999
2008-03-14 06:29:19 51°14.963 2°35.796 -999 -999 -999 -999 -999
2008-03-14 06:29:24 51°14.964 2°35.771 -999 -999 -999 -999 -999
2008-03-14 06:29:29 51°14.965 2°35.746 -999 -999 -999 -999 -999
2008-03-14 06:29:34 51°14.965 2°35.721 -999 -999 -999 -999 -999
2008-03-14 06:29:39 51°14.966 2°35.696 -999 -999 -999 -999 -999
2008-03-14 06:29:44 51°14.966 2°35.671 -999 -999 -999 -999 -999
2008-03-14 06:29:49 51°14.967 2°35.646 -999 -999 -999 -999 -999
2008-03-14 06:29:54 51°14.967 2°35.62 -999 -999 -999 -999 -999
2008-03-14 06:29:59 51°14.968 2°35.595 -999 -999 -999 -999 -999
2008-03-14 06:30:04 51°14.968 2°35.57 -999 -999 -999 -999 -999
2008-03-14 06:30:09 51°14.969 2°35.544 -999 -999 -999 -999 -999
2008-03-14 06:30:14 51°14.969 2°35.519 -999 -999 -999 -999 -999
2008-03-14 06:30:19 51°14.97 2°35.494 -999 -999 -999 -999 -999
2008-03-14 06:30:24 51°14.97 2°35.469 -999 -999 -999 -999 -999
2008-03-14 06:30:29 51°14.971 2°35.443 -999 -999 -999 -999 -999
2008-03-14 06:30:34 51°14.971 2°35.418 -999 -999 -999 -999 -999
2008-03-14 06:30:39 51°14.972 2°35.393 -999 -999 -999 -999 -999
2008-03-14 06:30:44 51°14.973 2°35.368 -999 -999 -999 -999 -999
2008-03-14 06:30:49 51°14.973 2°35.343 -999 -999 -999 -999 -999
2008-03-14 06:30:54 51°14.973 2°35.318 -999 -999 -999 -999 -999
2008-03-14 06:30:59 51°14.974 2°35.293 -999 -999 -999 -999 -999
2008-03-14 06:31:05 51°14.974 2°35.262 -999 -999 -999 -999 -999
2008-03-14 06:31:10 51°14.974 2°35.237 -999 -999 -999 -999 -999
2008-03-14 06:31:14 51°14.975 2°35.216 -999 -999 -999 -999 -999
2008-03-14 06:31:19 51°14.975 2°35.191 -999 -999 -999 -999 -999
2008-03-14 06:31:24 51°14.975 2°35.166 -999 -999 -999 -999 -999
2008-03-14 06:31:30 51°14.976 2°35.135 -999 -999 -999 -999 -999
2008-03-14 06:31:34 51°14.977 2°35.115 -999 -999 -999 -999 -999
2008-03-14 06:31:39 51°14.978 2°35.09 -999 -999 -999 -999 -999
2008-03-14 06:31:44 51°14.978 2°35.064 -999 -999 -999 -999 -999
2008-03-14 06:31:49 51°14.979 2°35.039 -999 -999 -999 -999 -999
2008-03-14 06:31:54 51°14.979 2°35.013 -999 -999 -999 -999 -999
2008-03-14 06:31:59 51°14.98 2°34.988 -999 -999 -999 -999 -999
2008-03-14 06:32:04 51°14.98 2°34.962 -999 -999 -999 -999 -999
2008-03-14 06:32:09 51°14.981 2°34.937 -999 -999 -999 -999 -999
2008-03-14 06:32:14 51°14.981 2°34.912 -999 -999 -999 -999 -999
2008-03-14 06:32:19 51°14.981 2°34.887 -999 -999 -999 -999 -999
2008-03-14 06:32:24 51°14.981 2°34.861 -999 -999 -999 -999 -999
2008-03-14 06:32:29 51°14.982 2°34.836 -999 -999 -999 -999 -999
2008-03-14 06:32:34 51°14.982 2°34.811 -999 -999 -999 -999 -999
2008-03-14 06:32:39 51°14.983 2°34.785 -999 -999 -999 -999 -999
2008-03-14 06:32:44 51°14.983 2°34.76 -999 -999 -999 -999 -999
2008-03-14 06:32:49 51°14.985 2°34.734 -999 -999 -999 -999 -999
2008-03-14 06:32:54 51°14.985 2°34.709 -999 -999 -999 -999 -999